Home   Weather   Israel   Tel Aviv   Past weeks
Flag for Israel

Past Weather in Tel Aviv, Israel — Yesterday and Last 2 Weeks

Currently: 63 °F. Sunny. (Weather station: Ben Gurion International Airport, Israel). See more current weather

Past Weather in Tel Aviv — Graph

°F

Tel Aviv Temperature Yesterday

Maximum temperature yesterday: 77 °F (at 11:50 am)
Minimum temperature yesterday: 59 °F (at 5:50 am)
Average temperature yesterday: 70 °F

High & Low Weather Summary for the Past Weeks

 TemperatureHumidityPressure
High93 °F (Apr 17, 1:50 pm)100% (Apr 8, 8:50 pm)30.09 "Hg (Apr 8, 8:50 pm)
Low57 °F (Apr 9, 4:20 am)15% (Apr 17, 3:50 pm)29.68 "Hg (Apr 18, 3:50 am)
Average69 °F69%29.93 "Hg
* Reported Apr 8 6:20 am — Apr 23 6:50 am, Tel Aviv. Weather by CustomWeather, © 2024

Note: Actual official high and low records may vary slightly from our data, if they occured in-between our weather recording intervals... More about our weather records

Tel Aviv Weather History for the Previous 24 Hours

Scroll right to see more
 ConditionsComfort  
Time TempWeatherWind HumidityBarometerVisibility
6:50 am
Tue, Apr 23
61 °FSunny.2 mph68%30.04 "Hg10 mi
6:20 am59 °FSunny.2 mph72%30.04 "Hg10 mi
5:50 am61 °FClear.1 mph68%30.04 "Hg10 mi
5:20 am61 °FClear.2 mph68%30.04 "Hg10 mi
4:50 am61 °FClear.3 mph77%30.04 "Hg10 mi
3:20 am63 °FClear.3 mph77%30.07 "Hg10 mi
2:50 am63 °FClear.2 mph77%30.07 "Hg10 mi
2:20 am64 °FClear.3 mph78%30.07 "Hg10 mi
1:50 am64 °FClear.3 mph78%30.07 "Hg10 mi
1:20 am66 °FClear.2 mph73%30.07 "Hg10 mi
12:50 am66 °FClear.2 mph73%30.07 "Hg10 mi
12:20 am66 °FClear.2 mph73%30.07 "Hg10 mi
11:20 pm
Mon, Apr 22
68 °FClear.5 mph69%30.09 "Hg10 mi
10:50 pm68 °FClear.3 mph69%30.09 "Hg10 mi
10:20 pm68 °FClear.2 mph69%30.09 "Hg10 mi
9:50 pm68 °FClear.6 mph69%30.09 "Hg10 mi
9:20 pm70 °FClear.6 mph60%30.09 "Hg10 mi
8:50 pm70 °FClear.7 mph60%30.09 "Hg10 mi
8:20 pm72 °FClear.8 mph57%30.09 "Hg10 mi
7:50 pm72 °FClear.8 mph57%30.09 "Hg10 mi
7:20 pm72 °FClear.7 mph57%30.07 "Hg10 mi
6:50 pm73 °FSunny.8 mph57%30.07 "Hg10 mi
6:20 pm73 °FSunny.9 mph57%30.07 "Hg10 mi
5:50 pm75 °FSunny.9 mph50%30.07 "Hg10 mi
5:20 pm75 °FSunny.10 mph47%30.07 "Hg10 mi
4:50 pm75 °FSunny.12 mph54%30.07 "Hg10 mi
3:50 pm77 °FSunny.12 mph51%30.07 "Hg10 mi
3:20 pm75 °FSunny.13 mph54%30.07 "Hg10 mi
2:50 pm77 °FPassing clouds.12 mph51%30.07 "HgN/A
2:20 pm77 °FPassing clouds.13 mph54%30.07 "HgN/A
1:50 pm77 °FSunny.12 mph51%30.07 "Hg10 mi
1:20 pm77 °FSunny.9 mph51%30.07 "Hg10 mi
12:50 pm77 °FSunny.6 mph47%30.07 "Hg10 mi
12:20 pm77 °FSunny.3 mph47%30.07 "Hg10 mi
11:50 am77 °FSunny.3 mph42%30.07 "Hg10 mi
11:20 am75 °FSunny.6 mph44%30.09 "Hg10 mi
10:20 am72 °FSunny.6 mph50%30.09 "Hg10 mi
9:50 am72 °FSunny.5 mph53%30.09 "Hg10 mi
9:20 am70 °FSunny.5 mph57%30.07 "Hg10 mi
8:50 am68 °FPassing clouds.6 mph60%30.07 "HgN/A
8:20 am66 °FPassing clouds.3 mph68%30.07 "HgN/A
Weather by CustomWeather, © 2024

See weather overview